Date,TemperatureHighF,TemperatureAvgF,TemperatureLowF,DewpointHighF,DewpointAvgF,DewpointLowF,HumidityHigh,HumidityAvg,HumidityLow,PressureMaxIn,PressureMinIn,WindSpeedMaxMPH,WindSpeedAvgMPH,GustSpeedMaxMPH,PrecipitationSumIn
2013-1-1,48.2,45.5,41.2,47.7,38.6,26.1,98,78,48,29.26,29.09,6,1,6,0.21
2013-1-2,50.9,43.9,37.9,45.9,37.2,30.8,98,79,53,29.35,29.12,4,0,4,0.37
2013-1-3,42.4,36.5,25.9,32.8,28.1,23.6,91,72,51,29.44,29.32,3,0,3,0.00
2013-1-4,52.2,35.5,23.7,29.2,20.9,15.7,93,60,31,29.47,29.35,13,2,13,0.00
2013-1-5,53.1,37.0,22.8,32.8,23.1,16.6,81,59,35,29.56,29.38,4,1,4,0.00
2013-1-6,56.5,43.2,36.3,39.1,33.9,28.2,95,71,44,29.38,29.20,6,1,6,0.00
2013-1-7,55.6,37.9,27.5,33.5,26.5,22.5,91,67,37,29.59,29.23,6,1,6,0.00
2013-1-8,59.4,40.0,25.2,40.1,32.6,22.3,93,77,46,29.65,29.50,6,0,6,0.00
2013-1-9,66.2,49.4,34.0,51.1,43.8,33.2,98,82,56,29.62,29.53,6,0,6,0.00
2013-1-10,62.2,49.4,40.1,51.1,39.1,33.5,98,72,36,29.71,29.59,5,0,5,0.26
2013-1-11,47.7,43.3,40.3,45.5,41.6,35.6,98,94,68,29.59,29.35,4,0,4,0.39
2013-1-12,66.4,54.0,46.0,61.8,52.8,45.5,98,96,84,29.35,29.29,3,0,3,0.00
2013-1-13,74.5,58.7,45.7,63.7,54.0,45.2,98,86,56,29.32,29.23,11,1,11,0.00
2013-1-14,64.2,60.3,51.4,62.8,59.3,50.9,98,96,85,29.38,29.26,6,0,6,0.50
2013-1-15,51.4,43.6,40.3,50.9,43.0,39.8,98,98,97,29.44,29.23,6,0,6,0.38
2013-1-16,48.9,43.8,38.7,48.4,43.2,38.2,98,98,98,29.35,29.12,6,0,6,0.08
2013-1-17,49.1,42.2,32.5,48.6,41.7,32.0,98,98,97,29.35,29.12,6,1,6,0.05
2013-1-18,48.7,35.0,27.0,39.3,29.3,24.0,98,83,43,29.71,29.35,5,0,5,0.00
2013-1-19,55.4,35.8,23.2,37.4,26.7,22.5,98,74,36,29.68,29.29,6,1,6,0.00
2013-1-20,63.7,43.7,29.5,36.7,28.9,24.0,92,61,30,29.38,29.17,12,2,12,0.00
2013-1-21,60.8,42.2,26.1,40.3,24.5,12.5,92,55,30,29.29,29.03,14,2,14,0.00
2013-1-22,39.2,31.0,21.9,12.7,4.1,-0.2,49,32,24,29.44,29.12,14,3,14,0.00
2013-1-23,45.3,28.9,17.4,18.6,10.1,2.4,63,46,33,29.50,29.17,9,1,9,0.00
2013-1-24,37.9,29.4,21.0,23.6,11.3,2.2,77,48,30,29.62,29.12,10,2,10,0.00
2013-1-25,25.5,23.0,19.4,23.3,11.9,2.9,91,64,43,29.65,29.23,7,1,7,0.00
2013-1-26,39.4,29.5,21.6,30.1,24.9,19.3,96,84,61,29.56,29.23,4,0,4,0.04
2013-1-27,44.1,32.1,20.8,27.5,23.1,18.0,90,71,48,29.74,29.56,8,1,8,0.00
2013-1-28,50.4,42.1,33.1,44.6,34.7,25.7,94,76,52,29.65,29.38,7,1,7,0.04
2013-1-29,74.3,57.7,44.2,56.3,49.7,43.2,98,78,45,29.41,29.20,8,1,8,0.00
2013-1-30,72.0,65.8,58.1,64.8,61.0,55.5,98,85,63,29.20,28.61,16,4,16,0.75
2013-1-31,58.3,44.0,33.6,57.5,26.4,16.3,98,52,33,29.17,28.64,18,4,18,0.04